GEFSSGP_500_meanwind_120.txt.gz
Wind_Speed
7 6 6 5 4 4 4 4 4 3 3 3 4 4 4 5 4 5 5 6 7 8 8 9 10 10 11 12 12 12 13 13 14 14 14 15 15 16 16 17 17 18 19 19 19 19 18 17 17
9 8 7 6 4 5 4 4 4 4 3 3 4 4 4 4 5 6 6 7 9 9 10 10 11 11 11 12 12 12 13 13 13 14 14 16 16 17 18 18 18 19 20 20 20 20 20 19 18
11 10 8 7 6 5 4 4 4 4 4 4 5 5 5 5 6 7 8 9 10 10 10 11 11 11 11 11 11 11 12 13 14 15 16 16 17 17 18 18 19 19 20 21 21 20 21 21 20
12 11 10 8 6 6 6 6 5 5 5 5 6 6 6 6 6 7 9 9 10 10 11 11 10 10 10 11 11 12 13 13 14 15 16 16 17 17 18 19 19 20 21 22 22 22 22 22 21
13 12 10 9 8 7 7 7 6 7 6 6 6 6 6 6 7 7 9 10 10 9 10 10 9 9 9 10 11 12 13 13 14 15 16 17 18 18 18 19 20 20 22 23 22 22 22 23 23
14 13 12 10 9 8 7 7 7 7 6 6 5 6 7 7 7 7 8 9 9 8 8 8 8 8 9 10 11 12 13 14 15 15 16 16 17 18 18 19 20 20 21 22 22 22 22 23 24
15 14 12 11 10 9 8 7 7 7 8 7 7 7 8 7 7 8 8 9 8 7 7 6 7 8 9 10 11 12 13 14 15 16 16 17 18 18 19 19 20 21 21 22 23 23 23 24 24
16 15 13 11 10 10 8 8 8 7 7 7 8 8 7 7 7 8 8 8 7 7 6 6 7 8 9 10 11 12 13 14 15 16 17 18 18 19 19 20 21 22 22 23 24 23 24 24 25
17 16 14 13 11 10 10 9 9 8 7 8 7 7 6 7 7 7 8 7 7 6 6 6 7 8 9 9 10 11 12 13 14 16 17 18 18 18 19 20 20 21 22 23 24 24 24 24 25
18 16 15 14 12 11 10 10 9 8 8 8 8 7 7 7 7 7 7 7 6 6 6 7 8 8 8 9 10 11 13 14 15 15 16 17 18 18 19 19 20 21 22 23 23 24 24 24 25
19 17 15 15 13 12 10 10 10 9 9 8 8 8 8 7 7 7 7 6 6 6 6 6 7 8 8 9 11 12 13 14 15 15 16 16 17 18 19 19 20 21 22 23 24 24 25 25 24
19 18 17 16 14 13 11 10 10 10 9 9 9 9 9 8 7 7 6 6 6 6 5 6 6 7 8 9 11 12 13 14 15 15 16 17 17 18 19 20 20 20 21 22 23 24 25 26 25
20 18 17 16 15 13 11 11 11 10 10 9 9 8 8 8 8 7 6 6 6 5 5 5 6 7 9 10 11 12 13 14 15 16 16 17 18 18 19 19 20 20 21 21 22 24 25 27 27
19 18 17 15 15 14 13 12 11 10 10 9 9 9 8 8 7 7 6 6 5 4 4 5 7 8 9 10 11 13 14 15 15 16 17 18 18 18 18 18 19 19 20 20 21 22 24 26 27
18 18 17 15 14 13 12 11 10 9 9 9 9 9 9 9 7 6 6 6 5 4 4 5 7 8 9 10 12 13 14 15 16 17 18 18 18 18 19 19 19 19 20 20 21 22 23 24 25
18 17 16 14 13 12 11 10 10 10 9 9 9 9 8 7 7 6 6 5 4 4 4 6 7 8 9 11 12 14 15 16 16 17 18 19 18 18 19 19 19 19 19 19 20 21 22 22 24
16 15 14 12 12 10 9 9 9 9 9 9 8 8 7 7 7 6 5 4 4 4 5 6 7 8 10 11 12 14 15 16 17 18 19 19 18 18 18 18 18 18 18 18 18 19 20 21 22
13 13 12 11 10 9 8 7 7 7 8 8 8 7 7 6 6 6 5 4 4 4 5 6 7 9 10 11 13 14 15 16 17 18 19 19 18 18 18 18 18 18 17 17 17 18 19 19 21
11 11 10 9 8 7 6 6 5 5 6 6 7 7 7 6 5 5 5 5 5 5 5 6 8 9 10 12 13 14 15 17 17 18 19 19 19 18 18 18 17 17 16 16 15 16 17 18 19
11 10 9 8 7 6 5 4 4 4 4 5 6 6 6 5 5 5 5 5 5 5 6 7 8 9 10 12 13 14 15 17 17 18 19 19 19 19 18 18 17 16 15 14 13 14 14 16 17
10 8 8 7 6 5 4 3 3 3 3 4 4 5 5 4 4 5 5 5 6 6 7 7 8 9 10 12 13 14 15 17 17 18 19 19 19 19 18 18 17 16 14 13 12 11 12 14 15
9 8 7 6 4 4 4 2 2 2 3 3 4 4 3 3 4 5 6 6 6 6 7 7 8 9 10 12 13 14 15 17 17 18 19 19 19 19 18 18 16 14 13 11 10 9 10 11 13
9 8 6 5 5 4 4 3 2 2 3 3 4 4 4 4 4 5 5 6 6 6 7 7 8 9 10 12 13 14 15 16 17 18 18 18 19 18 17 17 16 14 12 11 9 8 8 9 11
8 7 6 6 5 4 3 2 2 2 2 3 4 4 4 4 4 5 5 6 6 7 7 7 8 9 10 11 13 14 15 16 16 17 18 18 18 18 17 16 15 14 12 10 8 7 7 8 10
7 6 6 5 4 3 2 2 1 2 3 4 4 4 5 5 5 6 6 6 7 7 8 8 8 9 10 11 13 14 15 16 16 16 17 17 17 17 17 16 15 14 13 11 9 7 6 6 7
5 5 4 3 2 2 2 2 2 3 4 5 5 5 6 6 6 7 7 8 8 8 8 9 9 10 10 11 12 13 15 15 15 16 16 16 17 17 16 16 14 13 12 11 9 7 5 4 5
4 3 2 1 1 2 2 3 4 5 5 6 6 7 7 7 7 8 8 8 9 9 9 10 10 10 11 12 12 13 14 15 15 15 15 16 16 16 16 15 14 13 11 10 9 7 5 3 2
3 2 0 0 1 1 2 4 4 5 6 7 7 8 9 9 9 10 10 10 10 10 11 11 11 11 12 12 13 13 14 14 14 15 15 15 15 15 15 14 14 13 12 10 8 7 5 3 2
2 1 1 2 2 2 2 4 5 6 7 8 9 9 10 11 11 11 11 11 12 12 13 12 12 13 13 13 13 14 14 14 14 14 15 15 14 14 14 14 13 13 11 10 8 7 5 4 2
2 2 2 3 3 4 5 5 6 7 7 9 10 10 11 12 12 13 13 13 14 14 15 15 14 14 14 14 14 14 14 14 14 14 14 14 14 14 14 13 12 12 11 10 9 7 6 4 2

GEFSSGP_500_meanwind_126.txt.gz
Wind_Speed
6 5 3 1 1 2 3 3 2 2 2 1 0 1 2 3 2 4 4 5 5 5 6 6 6 6 7 7 8 8 8 8 8 9 10 10 11 11 12 13 13 14 14 14 14 14 14 14 13
8 6 4 3 1 1 1 2 1 1 1 0 1 1 1 2 3 4 5 5 6 6 7 7 7 7 7 7 8 8 8 9 9 10 11 11 12 12 13 13 13 14 15 15 15 15 15 15 15
9 7 5 3 2 2 1 1 1 1 1 1 1 1 1 2 2 4 5 5 6 7 7 7 8 8 8 8 8 8 9 10 11 11 12 13 13 13 13 14 15 15 16 16 16 16 16 16 16
10 8 7 5 4 3 3 2 2 2 2 2 2 2 3 3 3 4 5 5 6 6 7 7 8 8 8 8 8 8 9 10 11 12 13 13 13 13 14 15 15 16 16 17 17 17 17 17 17
11 10 8 7 5 4 4 3 3 3 3 3 4 4 4 4 4 4 4 5 5 6 6 7 6 6 7 7 8 9 10 11 12 12 13 14 14 15 15 16 16 16 17 17 17 18 18 18 18
12 11 9 7 7 6 5 4 4 4 4 4 4 4 4 4 4 4 5 6 6 6 6 5 5 5 6 7 8 10 10 11 12 12 13 14 14 15 16 17 17 17 17 18 18 18 19 18 18
14 12 10 9 8 7 6 5 5 5 4 4 4 5 5 5 4 5 5 5 5 5 5 4 4 5 6 7 8 10 10 11 11 12 14 15 15 16 16 17 18 18 18 18 19 19 19 18 18
15 13 12 10 9 9 7 7 6 5 5 5 5 6 6 5 5 5 5 5 5 5 4 4 4 5 6 7 9 10 11 11 12 12 13 14 15 16 17 17 17 18 18 18 19 19 19 19 19
16 14 13 12 11 9 9 8 7 7 6 6 6 6 6 6 6 6 5 5 5 5 4 4 4 6 7 8 9 10 10 11 12 13 14 14 15 16 17 17 17 17 17 18 18 19 19 20 19
16 14 13 12 12 11 9 8 7 7 7 6 6 7 7 6 6 6 5 5 5 5 4 4 5 7 8 9 9 10 10 11 12 13 14 15 15 16 16 17 17 17 18 18 19 19 20 20 20
17 15 14 13 12 11 10 9 8 8 7 7 7 7 7 7 7 7 6 6 6 5 5 5 6 7 8 8 9 10 11 11 13 14 14 15 15 16 16 17 18 18 18 19 19 20 20 21 22
18 16 15 13 12 11 11 10 9 8 7 7 8 8 8 8 8 8 7 6 5 5 5 5 7 7 8 8 9 10 11 12 13 14 14 15 16 16 16 17 18 18 18 19 20 21 21 21 22
19 17 15 14 12 11 11 10 9 8 8 8 8 8 8 9 8 8 7 6 6 6 6 6 7 7 8 9 9 10 12 13 14 14 15 16 16 17 17 17 18 18 19 19 20 21 21 22 22
19 17 16 14 13 12 11 10 9 8 8 8 8 8 8 8 8 7 7 7 7 6 6 6 7 7 8 9 10 11 12 13 14 15 16 16 17 18 18 18 18 19 19 19 19 20 21 22 22
18 17 15 14 13 12 11 10 9 9 8 8 8 8 8 8 7 6 7 7 7 7 7 7 7 7 8 9 10 12 13 14 15 16 16 17 17 18 18 19 19 19 19 19 18 18 19 20 21
17 16 14 13 11 10 10 9 9 9 8 8 8 7 8 8 7 7 7 7 7 7 7 8 8 8 9 10 11 12 13 14 15 16 17 17 18 18 19 19 19 19 19 19 18 18 18 19 20
17 15 14 12 10 9 9 8 8 8 8 8 7 7 7 7 7 7 7 7 7 7 7 8 8 9 10 10 11 13 13 14 16 16 17 18 18 19 19 19 19 19 18 18 18 17 17 18 18
15 14 13 11 10 8 8 8 8 7 7 7 6 7 7 7 7 7 7 7 7 7 7 8 9 9 10 11 12 13 14 15 16 17 17 18 18 19 19 19 19 19 18 17 16 16 16 17 17
14 13 12 11 9 8 8 7 7 6 6 5 6 6 7 7 6 6 7 7 7 7 7 8 9 10 11 11 12 13 14 15 16 16 17 18 19 19 19 19 19 18 17 16 15 14 15 15 16
13 13 12 10 8 7 7 6 6 5 5 4 4 5 6 6 5 6 6 7 7 7 8 8 9 10 11 12 12 13 14 15 15 16 17 18 19 19 19 19 19 17 17 16 15 14 13 14 15
13 12 10 9 8 7 6 5 5 4 4 3 4 4 5 5 5 6 6 7 7 7 8 8 9 10 11 12 13 13 14 15 16 16 17 18 18 19 19 19 19 18 17 16 15 13 13 13 13
12 11 10 9 8 7 6 4 4 3 3 3 4 4 4 4 5 5 5 6 7 8 8 9 9 11 11 12 13 13 14 15 16 17 17 18 18 19 19 19 18 18 17 16 14 13 12 11 12
12 11 9 9 8 6 6 4 3 3 3 3 3 3 3 4 5 5 6 6 7 8 8 9 10 11 12 12 13 14 14 15 16 17 17 18 18 18 19 19 18 18 17 16 14 13 11 10 11
11 11 9 8 7 6 6 5 4 3 2 2 2 3 4 4 5 6 6 7 8 8 9 10 11 12 13 13 14 14 15 16 16 17 17 17 18 18 18 18 18 17 16 16 15 13 10 9 9
10 10 9 7 7 6 5 4 3 2 1 1 2 4 4 5 6 6 7 8 9 10 11 11 12 13 14 14 15 15 16 16 17 17 17 17 18 18 18 18 18 17 16 15 15 13 10 8 7
9 9 9 8 7 6 5 4 2 1 1 2 4 5 5 6 7 8 8 9 10 11 12 13 13 14 15 15 15 16 16 17 17 17 17 18 18 18 18 18 18 17 16 15 14 12 10 8 6
8 7 8 7 6 5 4 3 2 1 2 3 5 6 7 8 9 9 10 10 11 12 13 14 14 15 15 16 16 16 17 17 18 17 18 18 17 17 17 18 17 17 16 14 13 12 10 8 6
8 7 7 6 5 4 3 2 2 3 3 4 5 6 7 8 9 10 11 11 12 12 13 14 15 16 16 17 17 17 18 18 18 18 18 18 18 17 17 17 17 16 15 14 13 12 10 8 6
7 6 6 5 5 4 4 3 3 4 4 5 6 6 7 8 9 10 11 12 13 14 15 15 16 16 17 18 18 19 19 19 19 19 19 19 18 18 17 17 16 15 15 14 13 12 10 8 7
5 5 4 4 4 3 4 4 4 5 5 5 6 7 8 9 10 11 12 13 14 15 16 16 17 18 18 19 19 20 20 20 20 20 20 19 19 19 18 17 16 15 14 14 13 12 10 9 7

GEFSSGP_500_meanwind_132.txt.gz
Wind_Speed
6 5 3 2 2 1 2 2 2 2 1 1 0 0 1 1 2 3 4 4 4 5 5 6 6 6 7 7 8 8 8 8 8 8 9 9 10 11 11 12 12 12 12 13 13 14 14 14 13
8 7 6 4 3 1 0 1 1 1 1 0 0 0 1 1 2 3 4 5 6 6 6 6 7 7 8 8 8 8 8 8 9 9 9 10 11 12 12 12 12 12 13 13 14 14 15 15 15
10 8 8 6 4 3 2 1 1 0 1 1 1 1 1 2 3 4 4 5 5 6 6 7 7 8 8 8 8 8 8 9 10 10 11 11 12 12 12 12 13 13 14 14 15 15 15 15 15
11 10 9 8 6 4 3 2 1 1 2 2 2 2 3 3 4 4 5 5 5 5 6 7 7 7 7 8 8 8 8 9 10 11 11 12 12 12 13 13 14 14 15 15 15 16 15 15 15
13 12 10 9 7 6 5 3 3 3 3 3 2 3 3 3 4 4 5 5 5 5 6 7 7 7 7 7 8 8 9 10 11 11 12 12 12 12 13 13 14 15 15 15 15 15 16 16 16
13 13 10 9 8 7 6 5 4 3 3 3 3 3 4 5 5 4 5 5 5 6 6 7 6 6 7 7 8 9 10 10 11 12 12 12 13 13 14 15 15 15 15 15 16 15 15 16 16
14 13 12 11 9 8 7 6 5 5 4 5 4 4 4 5 5 5 6 6 6 6 6 6 5 6 7 7 8 9 10 11 11 12 13 13 14 14 15 15 16 16 16 16 15 15 15 16 16
16 15 12 12 10 8 7 7 6 6 6 6 6 5 5 5 5 6 6 6 7 7 6 5 5 6 7 8 9 10 10 11 12 12 13 13 14 14 15 16 15 15 15 16 15 15 15 15 16
17 16 14 13 11 9 8 7 7 7 7 7 7 6 6 6 7 7 7 6 7 7 6 5 6 6 7 8 10 10 11 11 12 13 13 14 14 15 15 16 16 16 16 16 16 16 16 16 16
18 16 15 13 11 10 9 8 8 7 8 8 7 7 7 7 7 7 7 6 6 6 6 5 6 7 8 9 10 10 11 12 12 13 13 14 15 15 16 17 17 17 17 17 17 17 17 17 17
19 17 15 13 11 10 9 9 8 8 8 8 7 7 8 8 8 7 7 6 6 6 6 6 7 8 9 9 10 11 11 12 13 14 14 15 16 16 17 17 17 18 18 18 18 17 17 17 18
20 18 14 11 11 11 9 9 9 8 9 8 7 7 7 8 7 7 7 7 6 6 6 6 7 8 8 9 10 11 12 13 14 14 15 15 16 17 17 18 18 18 18 18 18 17 17 17 18
19 18 15 13 12 11 10 9 8 8 8 8 8 7 7 8 8 7 7 7 6 6 6 6 7 7 8 9 11 12 13 13 14 15 15 16 17 18 19 19 19 19 19 19 18 18 17 17 17
18 17 15 13 11 10 10 10 9 8 8 8 8 7 7 7 7 7 7 7 7 6 6 6 7 8 8 10 11 12 13 13 15 15 16 17 18 18 19 20 20 20 20 19 18 18 18 18 18
17 15 14 12 10 9 9 9 9 8 8 8 8 7 7 7 8 8 8 7 7 6 6 6 7 8 9 10 11 12 13 14 15 15 16 17 18 19 19 20 20 20 20 19 18 18 18 18 18
15 13 12 12 11 10 9 8 8 8 6 6 7 7 6 6 7 7 7 7 7 6 6 6 7 8 9 10 11 12 13 14 15 16 16 17 18 19 20 20 20 20 20 19 18 17 17 17 16
14 12 11 11 10 8 8 8 7 7 6 6 6 6 6 6 7 6 6 6 6 6 6 7 7 8 9 10 11 13 14 15 16 16 17 18 19 20 20 20 20 20 20 19 18 17 17 16 15
13 12 10 10 8 7 7 8 6 5 5 5 5 6 6 6 6 5 5 5 5 6 7 7 7 8 10 11 12 14 14 15 16 17 18 18 19 20 20 20 20 20 20 19 18 18 17 16 15
13 12 10 8 6 6 6 6 5 4 5 5 5 5 6 6 6 5 3 4 5 6 7 7 8 9 10 12 13 15 15 16 16 17 18 19 19 20 20 20 21 20 20 19 19 18 17 16 15
13 12 10 8 6 5 5 5 5 5 5 5 5 5 5 5 5 4 4 5 5 5 6 7 9 10 11 13 14 15 16 16 16 17 18 19 19 20 20 21 21 21 20 20 19 18 17 16 15
12 11 10 7 6 4 4 4 5 5 5 4 4 4 4 4 4 3 4 5 5 5 6 7 8 10 12 13 14 15 16 16 17 17 18 19 20 20 20 21 21 21 20 20 19 18 17 16 14
11 10 8 6 6 4 3 4 4 4 3 3 3 4 3 3 4 4 4 4 4 5 7 8 10 11 12 14 15 15 16 16 17 17 18 19 19 20 20 21 21 21 21 20 19 18 17 16 14
11 9 9 7 6 4 3 5 4 4 4 3 4 4 3 3 4 4 4 5 5 6 8 9 11 12 14 15 15 16 17 17 18 18 19 19 19 20 20 20 21 21 21 20 20 19 18 16 14
11 10 9 9 9 7 5 6 4 5 5 4 4 4 3 3 3 4 4 5 6 7 9 10 11 13 14 15 16 17 17 18 18 19 19 19 19 20 20 20 20 20 20 20 20 18 17 15 13
13 12 10 8 6 6 6 7 7 7 6 5 5 4 4 4 4 4 5 6 7 8 10 11 12 13 14 15 16 17 17 18 19 19 20 20 20 20 20 20 20 20 20 20 19 18 17 15 13
13 12 10 7 5 4 6 7 7 7 7 6 6 5 4 4 4 5 6 7 8 9 10 11 13 13 14 15 16 17 18 19 19 20 20 20 21 20 20 20 20 20 20 19 19 18 17 15 13
11 9 8 7 6 6 7 7 7 7 7 6 6 5 5 5 5 6 7 8 9 10 11 12 13 14 15 16 17 18 19 20 20 21 21 21 21 21 21 21 21 20 20 19 18 18 17 15 13
9 9 9 9 8 8 8 8 6 7 6 6 6 6 6 6 6 7 8 9 10 11 12 13 14 15 16 17 18 20 21 21 22 22 22 22 22 22 21 22 21 21 20 19 18 18 17 16 14
8 9 11 12 10 8 9 10 8 7 7 7 6 6 7 7 7 8 8 10 10 12 13 14 15 17 18 19 20 21 22 22 22 23 23 23 23 23 23 22 22 21 20 19 19 18 17 16 15
8 7 8 9 9 9 9 9 10 9 9 8 8 8 8 8 8 9 10 11 12 13 15 16 17 19 20 21 22 23 23 24 24 24 24 24 24 24 24 23 22 22 21 20 19 19 18 16 15

GEFSSGP_500_meanwind_138.txt.gz
Wind_Speed
9 7 6 5 5 4 4 4 4 5 5 5 5 5 5 4 3 2 1 0 0 1 1 2 3 3 4 4 4 5 5 6 6 7 7 7 7 8 9 9 10 10 11 11 12 12 13 14 14
10 9 8 7 6 5 5 5 5 6 6 5 5 4 4 4 3 2 1 2 1 1 1 2 3 4 4 5 5 5 6 6 6 6 7 7 7 8 9 9 10 11 11 12 12 13 13 14 14
11 11 10 9 8 7 6 5 5 5 5 5 4 4 3 3 3 2 2 2 2 2 2 2 3 3 4 4 5 5 6 6 6 6 6 7 7 8 9 10 10 11 12 13 13 14 14 14 14
13 12 11 10 9 8 7 5 5 5 4 3 3 3 3 2 2 2 2 2 2 2 2 2 3 3 4 5 5 5 6 6 6 6 7 7 7 9 9 10 11 12 12 13 13 14 14 15 15
15 14 13 11 10 10 8 6 5 4 4 3 2 2 2 2 1 1 2 2 2 2 2 2 2 4 4 5 5 5 6 6 7 7 7 7 8 9 10 11 11 12 12 12 12 13 14 14 15
15 15 15 14 11 10 9 7 6 4 4 3 2 1 1 1 1 1 1 2 2 2 2 2 2 3 4 4 5 5 6 7 8 8 8 9 10 10 11 11 12 12 12 12 13 13 13 14 14
17 15 15 14 12 11 9 8 7 5 4 3 2 1 0 0 1 1 1 1 2 2 2 2 2 3 4 4 5 5 6 7 8 8 9 10 10 11 12 12 12 12 12 12 13 13 13 13 14
18 16 15 14 12 11 10 7 6 5 4 3 2 1 1 1 1 1 1 1 1 1 2 2 2 3 3 4 5 6 6 7 8 8 9 10 10 11 11 12 12 12 12 13 13 13 14 14 14
18 17 17 15 13 11 9 7 6 5 4 4 3 2 1 1 1 1 1 1 1 2 2 2 3 3 3 4 5 6 7 7 8 9 9 9 10 11 12 12 13 13 13 13 13 14 14 14 15
18 17 17 15 13 11 9 8 6 5 4 4 4 3 2 2 2 2 2 2 2 2 2 3 3 4 4 5 6 6 7 8 8 9 9 10 10 11 12 13 13 13 13 13 14 14 15 15 15
19 17 15 14 12 10 7 7 6 4 4 4 4 4 3 2 2 3 3 3 2 2 2 3 3 4 4 5 6 6 7 8 9 9 9 10 10 11 12 13 14 14 14 14 15 15 14 14 14
19 17 15 13 11 10 8 6 5 4 4 4 4 3 2 2 2 2 2 2 2 2 2 3 3 4 4 5 6 7 8 8 9 9 10 10 11 12 12 13 14 15 15 15 15 15 15 14 13
18 16 14 12 10 10 8 6 4 4 4 4 4 3 3 3 3 3 3 2 2 2 2 3 3 3 4 4 5 7 8 9 9 10 11 11 12 12 13 14 15 15 15 15 15 15 14 14 14
18 16 14 12 10 9 7 6 5 4 4 4 3 3 3 3 2 3 2 2 2 2 2 3 3 3 4 5 5 7 8 9 10 10 11 11 12 13 14 15 15 15 15 15 15 14 14 14 14
17 16 14 12 9 8 7 6 5 5 4 3 4 4 3 3 2 2 2 2 2 2 2 2 3 3 4 5 5 7 8 9 10 10 11 12 12 14 15 15 16 16 16 15 15 15 15 14 14
17 16 14 12 11 9 8 6 6 5 4 4 4 4 3 3 2 2 2 1 1 1 2 2 2 3 4 5 6 7 8 9 10 11 11 12 13 14 15 16 16 16 16 16 15 15 15 14 13
16 14 13 12 11 9 8 6 6 5 4 4 4 3 3 3 2 2 2 1 1 0 1 1 2 3 5 6 7 8 9 10 10 11 12 13 14 15 16 16 17 17 16 16 16 15 15 14 13
15 14 13 12 10 9 8 7 6 5 4 4 4 3 3 3 2 2 2 2 1 1 0 1 2 4 5 7 8 9 10 10 11 12 13 14 14 15 16 16 17 17 17 17 16 16 15 14 13
15 14 13 12 11 9 9 8 7 6 5 4 4 4 3 3 2 2 2 2 2 1 1 1 2 4 6 7 8 9 10 11 12 12 13 14 15 15 16 17 17 18 18 17 17 16 15 14 13
14 13 12 12 11 10 9 7 6 6 5 4 3 4 4 3 3 3 3 2 2 1 1 2 3 5 6 7 8 9 11 11 13 13 14 15 15 16 16 17 18 18 18 17 17 17 16 14 13
12 13 12 12 11 10 8 6 6 5 4 3 3 4 4 3 3 3 3 3 3 1 1 2 3 5 6 7 9 10 11 12 13 14 15 16 16 16 17 17 18 18 18 18 17 17 16 15 13
12 12 12 11 10 8 7 5 5 5 4 4 3 3 3 4 3 3 3 3 2 1 1 2 4 5 7 8 9 10 11 12 13 15 15 16 17 17 17 18 18 18 18 18 18 17 16 15 14
13 12 12 11 9 8 7 6 5 5 4 4 3 3 4 4 4 3 3 3 2 2 2 3 4 6 7 8 9 10 12 13 14 15 16 16 17 18 18 19 19 19 19 18 18 17 16 15 14
14 13 12 11 9 8 7 6 5 4 3 3 3 3 3 3 3 3 3 2 2 2 3 3 5 6 7 8 10 11 12 14 15 15 16 16 17 18 19 19 19 19 19 18 18 17 16 15 14
14 13 13 11 10 8 6 5 5 4 3 2 2 2 2 2 3 3 2 2 3 3 3 5 6 7 8 9 11 12 14 15 16 17 17 17 18 19 19 20 19 19 19 19 18 17 16 15 14
12 11 11 10 9 7 6 4 5 4 3 2 2 2 2 3 3 3 3 3 3 4 5 6 7 8 9 11 12 14 15 16 17 17 18 19 19 20 20 21 20 20 19 19 18 17 16 15 14
11 11 10 10 9 8 6 4 4 4 3 2 2 3 3 3 4 4 4 4 5 5 6 7 8 9 10 11 13 15 16 17 17 18 19 19 20 20 21 21 21 21 20 19 19 18 17 16 15
11 10 10 9 9 9 6 4 3 2 2 3 3 4 4 4 5 5 6 6 6 7 7 9 10 11 12 13 15 16 17 18 18 19 20 21 21 22 21 21 22 21 21 20 19 19 17 16 16
11 11 10 9 9 9 7 4 4 3 4 4 5 5 5 5 5 7 7 7 8 8 9 10 11 12 13 15 16 17 18 19 20 21 22 23 24 24 23 24 23 22 22 21 20 19 18 17 17
10 11 10 10 9 8 7 5 6 5 5 5 5 6 6 6 6 7 8 9 9 10 11 11 12 13 15 16 18 19 19 20 22 23 24 25 25 26 26 25 25 24 23 22 21 21 20 19 18

GEFSSGP_500_meanwind_144.txt.gz
Wind_Speed
10 9 7 5 5 4 4 4 5 5 5 5 5 6 5 5 4 3 3 3 3 2 1 1 2 2 3 4 4 5 5 6 6 6 7 7 7 7 8 9 9 9 10 11 11 11 11 11 11
12 10 9 7 6 5 5 5 5 5 5 6 5 5 5 5 5 4 4 3 2 1 1 1 2 2 3 4 4 5 6 6 6 6 7 7 7 7 8 9 10 10 11 11 11 12 11 11 11
14 12 10 9 7 6 6 5 5 5 5 5 5 5 5 5 5 5 4 3 2 1 0 1 1 2 3 4 5 5 6 6 6 7 7 7 7 8 8 9 10 11 11 11 11 11 11 12 12
14 13 12 11 10 7 6 5 6 5 5 4 4 5 4 4 5 5 4 3 2 1 1 1 1 1 3 4 5 5 5 6 6 7 7 8 8 8 9 10 11 11 12 12 12 12 12 12 12
16 14 14 13 11 9 8 7 6 6 5 4 4 4 4 3 4 4 3 2 1 1 0 1 0 2 3 4 5 5 5 6 6 7 8 9 9 9 10 11 12 12 13 13 13 13 13 13 12
17 16 15 13 12 10 9 8 7 6 5 4 4 4 4 3 3 3 2 1 0 0 0 1 1 3 4 4 5 5 5 6 7 8 8 8 9 10 11 12 12 13 13 13 13 13 13 13 12
18 17 15 14 13 11 10 10 8 6 5 4 4 4 4 3 3 3 2 1 1 1 1 1 2 3 4 4 5 5 5 6 7 8 9 9 10 10 11 12 12 13 13 13 13 13 13 13 12
19 17 16 15 14 13 12 11 9 7 5 5 4 3 3 3 3 2 2 2 2 1 1 2 3 4 4 4 5 5 6 7 8 8 9 10 11 11 11 12 12 13 13 13 13 13 13 13 13
19 18 17 16 14 13 13 11 9 7 6 6 5 4 3 3 3 2 2 3 2 2 2 3 4 4 4 4 5 6 7 7 8 9 9 10 11 11 12 12 13 13 13 13 13 13 13 13 13
19 18 17 16 14 13 12 11 9 8 7 6 5 5 4 3 3 3 3 3 3 2 2 3 3 4 5 5 5 6 7 7 8 9 10 10 11 12 12 13 13 13 13 13 14 13 13 12 13
19 17 17 16 14 13 11 9 8 8 6 6 5 5 5 4 4 2 3 4 3 3 3 3 4 4 5 5 6 6 7 8 8 9 10 11 11 12 12 13 13 13 13 14 14 13 13 13 13
18 17 16 15 14 13 11 9 8 7 6 6 6 6 5 5 4 3 3 4 4 3 3 4 4 5 5 5 6 7 7 8 9 10 10 11 12 12 13 13 13 14 14 14 14 13 13 13 13
18 17 16 14 14 13 11 9 8 6 6 7 7 6 6 5 4 4 3 4 4 3 3 3 4 4 5 6 6 7 8 9 9 10 11 12 12 13 13 14 14 15 15 15 14 13 13 13 13
18 16 15 13 14 13 11 9 8 7 7 7 8 6 6 5 5 4 3 3 4 3 3 3 3 3 4 5 6 6 8 9 10 11 12 12 13 13 14 14 15 15 16 16 15 14 14 13 13
18 17 15 13 13 11 11 10 8 8 8 7 7 7 6 5 5 4 4 4 4 3 3 3 2 3 4 5 6 7 8 9 10 11 11 12 13 14 14 15 15 16 16 16 16 15 15 14 13
17 17 15 13 13 12 11 10 9 9 8 8 7 7 6 6 6 5 5 5 4 4 3 3 2 2 3 5 6 7 8 9 10 10 11 12 13 14 15 15 16 16 17 17 17 16 15 14 13
16 16 15 13 12 11 10 10 9 9 9 9 8 7 7 7 7 7 6 5 5 4 3 2 1 2 3 5 6 7 8 9 10 11 12 13 13 14 15 15 16 16 17 17 17 17 16 14 14
16 15 14 12 11 11 11 10 10 10 9 9 9 8 8 8 8 7 6 5 5 4 3 2 2 2 4 5 6 7 8 9 10 11 12 12 13 14 14 15 16 17 17 18 18 17 16 15 14
14 14 13 12 11 11 11 10 10 10 10 9 9 8 8 8 8 8 7 6 5 4 4 2 2 3 4 5 6 7 8 9 10 11 12 13 13 14 15 16 17 17 18 18 18 17 17 16 15
14 13 12 12 11 10 10 9 10 10 9 9 9 9 8 8 8 8 7 6 6 5 4 3 2 3 4 5 6 7 8 9 11 12 13 14 14 15 16 17 17 18 18 18 18 17 17 17 16
14 13 12 11 11 10 9 9 9 10 9 10 9 9 9 8 8 9 7 6 6 5 4 3 3 3 4 5 6 7 8 10 11 12 14 14 15 16 17 17 18 18 18 19 18 18 17 17 16
13 12 12 11 11 10 10 9 9 10 9 9 9 9 9 8 9 8 8 7 6 6 4 4 3 4 4 5 6 7 9 10 12 13 14 15 16 17 17 18 18 18 19 19 19 19 18 18 17
12 12 12 12 11 10 9 8 9 10 10 9 9 9 8 9 9 8 7 7 6 6 5 4 4 4 5 6 7 8 9 11 12 13 15 16 17 18 18 19 19 19 20 20 20 20 19 18 17
12 11 11 11 10 9 9 8 8 9 9 10 9 9 8 9 8 8 8 7 6 6 5 4 4 5 6 6 7 8 10 12 13 14 15 17 18 19 19 20 20 20 21 21 21 20 19 18 17
11 11 10 10 9 8 8 7 7 8 9 9 9 9 8 9 8 8 8 7 6 6 5 5 5 6 7 7 8 10 11 12 14 15 16 17 18 19 20 21 21 21 22 22 21 21 20 19 18
11 9 9 9 8 7 8 7 7 7 8 8 8 8 8 8 8 8 8 7 7 6 6 6 7 7 8 9 10 11 12 13 15 16 17 18 19 20 20 21 22 22 22 22 22 21 20 20 19
11 10 9 8 8 7 7 7 7 7 8 7 7 7 7 8 8 8 7 7 7 7 7 7 8 9 9 10 11 12 13 15 16 17 18 19 20 21 22 22 23 23 23 23 23 22 22 21 19
11 10 10 9 8 8 7 7 7 8 7 7 7 7 7 7 7 7 7 8 8 8 9 9 10 10 11 12 13 14 15 16 17 17 19 20 21 22 23 23 24 24 24 24 24 24 23 22 21
11 11 10 9 9 8 7 7 7 8 8 8 8 7 8 8 8 8 8 8 9 9 10 11 11 12 12 13 14 15 16 17 18 19 20 21 22 23 24 25 26 26 25 25 25 25 24 23 23
12 12 11 10 10 9 8 7 8 8 8 8 8 8 8 9 9 9 9 9 10 10 11 12 12 13 14 15 16 17 18 19 19 20 21 22 23 24 25 26 27 27 27 27 27 27 26 26 25

GEFSSGP_500_meanwind_150.txt.gz
Wind_Speed
11 9 8 7 6 6 6 6 8 9 9 9 8 8 8 8 8 7 6 5 5 4 4 3 2 2 2 2 3 3 4 4 4 4 5 5 6 6 6 6 6 6 6 7 6 6 6 6 6
12 11 9 8 7 7 7 7 8 8 8 9 9 8 8 8 8 7 6 6 5 5 4 3 1 1 2 2 3 3 4 4 5 5 5 6 6 6 6 6 7 7 7 7 7 7 7 7 7
13 12 11 10 9 9 8 8 8 8 9 8 8 8 8 8 7 7 6 6 5 4 3 2 2 2 2 3 3 3 4 5 5 6 6 6 6 6 7 7 7 8 8 8 8 8 8 8 7
15 13 12 11 10 10 9 8 8 8 8 8 8 7 7 8 7 6 5 5 5 4 3 3 2 2 2 3 3 3 4 5 5 6 6 7 7 8 8 8 8 9 9 9 9 9 9 8 8
16 15 13 12 11 11 10 9 9 8 8 8 8 8 8 8 7 6 5 5 5 4 3 2 1 1 2 3 3 4 4 4 5 6 6 7 8 8 9 9 9 10 10 10 10 10 9 9 9
17 16 15 14 13 12 11 10 9 9 8 7 7 9 9 8 7 6 5 5 4 3 2 1 0 1 2 3 3 3 4 5 6 6 7 8 9 10 10 10 10 11 11 11 11 10 10 9 9
18 18 16 15 14 13 12 10 10 10 8 7 7 8 8 8 7 6 5 4 3 2 2 1 1 2 2 3 3 4 5 6 6 7 8 9 9 10 10 10 11 11 11 11 11 11 10 9 9
19 18 17 16 15 14 13 11 11 10 9 8 7 7 7 7 6 5 4 3 2 2 1 0 2 2 2 3 3 5 5 6 7 8 9 9 10 10 11 11 11 11 12 12 11 10 9 9 9
19 19 18 17 17 15 13 12 11 10 9 8 7 7 6 7 6 5 4 3 2 2 1 1 1 2 3 4 4 5 6 6 7 8 9 10 11 11 11 11 12 12 12 11 11 10 9 9 9
20 19 18 17 17 16 14 13 11 10 9 9 8 7 7 7 7 6 4 3 2 2 1 0 1 2 2 3 4 5 6 7 7 8 9 10 11 11 12 12 12 12 11 11 10 10 9 9 9
20 19 18 17 16 16 14 13 12 10 10 10 9 8 8 8 7 6 5 3 3 3 2 1 1 2 3 4 4 5 6 7 7 8 9 10 11 12 12 12 12 11 11 11 11 10 10 10 9
19 19 17 16 16 15 14 14 12 11 11 10 9 8 8 8 7 6 5 4 4 3 2 1 1 2 3 4 4 5 6 7 7 8 9 10 11 12 12 12 12 12 12 12 12 11 10 10 10
18 18 17 16 15 15 14 13 12 11 11 10 10 9 9 8 6 5 4 4 4 3 2 1 1 2 3 3 4 5 5 6 8 8 9 10 11 12 12 13 13 13 13 13 12 11 11 10 10
18 17 17 16 16 15 15 13 13 11 11 10 10 9 8 7 7 5 4 4 4 3 2 1 1 2 3 3 4 5 5 6 7 8 9 10 11 12 12 13 13 14 14 13 13 12 11 11 10
18 17 17 17 16 16 15 13 13 12 11 11 10 10 9 8 7 6 5 5 4 3 2 2 2 2 3 3 4 5 6 7 8 9 9 10 11 11 12 13 13 14 14 14 13 13 12 11 11
19 18 17 16 16 16 15 14 13 13 12 11 10 10 9 8 8 7 6 5 4 4 3 2 2 2 2 3 4 5 6 7 8 9 10 10 11 11 12 13 14 14 14 14 13 13 12 11 11
19 19 18 17 16 15 15 14 13 13 12 11 11 11 9 9 8 7 6 5 4 4 3 2 2 2 2 3 4 5 6 7 8 8 9 10 10 11 12 13 14 14 14 14 14 13 13 12 12
18 17 18 16 15 14 14 14 13 12 12 11 10 10 10 9 8 8 7 6 4 4 3 3 2 2 2 3 4 5 5 6 7 8 9 10 11 12 13 13 14 14 14 14 14 14 13 12 12
17 16 15 14 13 12 12 12 13 12 12 11 10 9 9 9 9 8 8 6 5 5 4 3 3 3 3 3 3 4 5 6 7 8 9 10 11 12 13 14 14 14 14 14 14 14 13 12 12
16 15 13 12 11 10 9 9 11 12 11 11 10 9 9 9 9 9 8 7 6 5 4 4 4 3 3 3 3 4 5 5 6 7 8 9 10 12 13 14 14 14 14 14 14 14 13 13 13
17 15 13 11 10 9 8 8 9 11 11 10 10 9 9 9 9 9 9 8 7 6 5 4 4 4 3 3 3 3 4 5 6 8 9 10 11 12 14 14 15 14 14 14 14 14 13 13 13
15 14 13 11 10 9 9 9 9 9 10 10 10 10 9 9 9 9 9 9 8 7 6 5 4 4 3 3 3 4 5 6 7 9 9 11 12 13 14 15 15 15 15 14 14 14 14 14 14
14 14 13 12 10 9 9 8 8 9 9 9 9 9 9 10 10 10 9 9 9 8 7 6 6 5 4 4 4 5 6 7 8 9 10 11 13 13 14 15 15 15 15 15 15 15 15 15 15
13 12 12 10 8 8 9 8 8 9 8 9 9 9 10 10 10 10 10 10 9 9 8 8 7 6 5 5 5 6 6 7 8 9 10 12 13 13 14 15 15 15 16 16 16 16 16 16 16
12 11 9 9 8 9 9 9 8 9 9 8 9 9 9 9 10 11 10 10 10 10 9 8 8 7 6 6 7 7 7 8 9 10 11 13 13 13 14 15 15 16 16 17 17 17 17 17 17
12 11 10 9 9 9 9 8 8 9 9 9 9 9 10 10 10 10 10 10 10 10 9 9 8 7 7 7 8 8 8 9 10 11 12 13 14 14 15 15 16 17 18 18 19 19 18 18 18
12 11 10 9 8 8 8 9 8 8 9 9 9 10 10 10 10 10 10 11 11 10 10 9 9 8 8 9 9 10 10 11 12 13 14 14 15 15 16 17 17 18 19 20 20 20 20 20 19
11 11 10 9 8 8 8 9 10 9 9 9 10 10 10 10 10 10 10 10 11 11 10 10 10 10 10 10 11 11 12 13 13 14 15 15 16 16 17 18 19 19 20 21 21 21 21 20 20
11 10 9 9 9 8 7 8 10 10 10 10 10 10 10 10 10 10 11 11 11 11 11 11 11 11 11 11 12 13 13 14 15 15 16 17 17 17 18 18 19 20 21 22 22 22 22 21 21
11 11 10 10 10 10 9 9 10 11 11 11 11 10 10 10 10 11 11 12 12 12 12 12 12 12 13 13 13 14 15 15 16 17 17 18 18 19 19 20 21 22 22 23 23 23 23 22 22

GEFSSGP_500_meanwind_156.txt.gz
Wind_Speed
8 8 8 7 6 6 5 5 6 6 6 6 6 6 7 6 6 5 4 4 3 2 1 1 2 3 3 4 5 5 5 5 5 5 6 6 6 6 7 7 7 7 7 7 6 6 6 6 6
10 9 9 8 7 7 6 6 7 7 7 6 6 6 6 5 5 5 5 4 3 2 1 1 2 2 3 4 4 5 5 5 6 6 6 7 7 7 7 8 8 8 8 8 7 7 7 6 6
12 11 10 9 8 8 8 7 7 8 7 6 6 6 6 5 5 5 4 4 3 2 1 1 1 2 3 4 4 5 5 5 6 7 7 7 7 8 8 8 8 8 8 8 8 8 8 7 7
13 12 12 10 10 9 8 8 8 9 8 7 6 7 6 6 5 5 4 4 3 2 1 0 1 2 3 3 4 4 5 6 6 7 7 7 8 8 9 9 9 9 9 9 9 8 8 8 7
15 14 13 12 11 11 10 9 8 9 8 8 7 7 7 6 5 4 4 3 2 1 0 1 1 2 3 3 4 4 5 6 7 7 8 8 8 9 10 10 10 10 10 10 9 9 8 8 8
16 15 14 13 12 12 11 10 10 9 8 8 7 7 7 6 5 5 4 3 2 2 1 0 1 1 2 3 4 4 5 6 7 8 8 9 9 10 10 10 10 10 10 10 10 9 9 8 8
17 16 15 14 13 13 12 11 11 10 9 8 8 8 7 6 6 5 4 3 2 1 0 0 1 1 2 3 4 5 5 6 7 8 8 9 10 10 11 11 10 10 10 10 10 9 9 8 8
19 18 16 16 15 14 13 12 11 10 9 9 8 8 8 7 6 5 4 4 3 2 0 0 1 2 3 4 4 5 6 6 7 8 9 9 10 11 11 11 11 10 10 9 9 9 9 9 8
21 19 17 17 15 13 14 13 12 10 9 9 8 8 7 7 7 6 5 4 3 2 1 1 1 2 3 4 5 5 5 6 7 8 9 10 10 11 11 11 11 11 11 10 10 9 9 9 9
21 19 18 17 16 15 14 14 12 11 10 9 8 8 7 7 7 6 5 4 3 2 1 0 1 2 3 4 5 5 5 6 7 8 9 10 11 11 11 11 11 11 11 11 10 10 9 9 9
21 19 17 16 16 15 14 13 12 11 11 10 9 8 8 8 7 7 6 4 3 3 1 0 1 2 3 4 5 6 6 7 7 8 9 10 11 11 11 11 12 12 12 11 10 9 9 8 8
21 19 17 16 16 16 14 13 12 11 11 10 9 9 8 8 7 6 5 4 3 3 2 0 1 2 3 4 5 6 6 7 7 8 9 10 11 11 12 12 12 13 12 11 10 9 9 8 8
20 19 17 15 15 15 15 14 12 11 10 9 9 9 8 8 7 7 6 4 4 3 2 0 1 2 3 4 5 6 6 7 8 9 10 10 11 11 12 13 13 13 13 12 11 11 10 9 8
19 18 16 15 15 14 14 14 13 12 11 10 9 8 8 8 7 6 5 4 4 3 2 1 1 2 3 4 5 6 6 7 8 9 9 10 11 11 12 13 14 14 13 13 12 11 10 9 8
18 18 17 16 14 14 13 12 13 12 11 11 10 9 8 8 8 6 5 4 4 4 3 1 1 2 3 4 5 6 6 7 8 9 9 10 11 12 13 13 14 14 14 13 12 12 11 10 9
18 17 17 15 14 13 13 12 12 12 11 11 10 10 9 8 7 6 5 4 4 3 3 2 1 2 3 4 5 6 6 7 8 8 9 10 11 12 13 14 14 14 14 13 12 12 11 11 9
17 17 17 15 14 13 13 13 12 12 11 11 10 10 9 8 7 6 5 5 4 3 2 2 1 2 3 4 5 6 6 7 8 8 9 10 11 13 13 14 14 14 14 13 12 12 12 11 10
15 16 16 15 13 12 12 12 12 12 12 11 11 10 9 8 7 7 6 5 4 3 2 1 2 2 3 4 4 5 6 6 7 8 9 10 12 13 13 14 14 14 14 13 13 13 12 12 11
13 13 14 15 13 12 11 11 12 11 10 10 10 10 10 9 8 7 6 6 5 4 2 1 2 2 3 3 4 4 5 6 7 8 9 11 12 13 13 14 14 14 14 14 13 13 13 12 12
12 11 12 14 13 11 10 9 10 10 11 10 10 10 9 9 8 7 6 6 5 4 3 2 2 2 2 3 3 4 5 6 7 9 10 10 12 13 13 14 14 15 14 14 14 13 13 13 12
12 11 11 11 11 9 8 7 8 9 9 10 11 10 10 8 8 7 6 6 5 4 4 3 3 2 3 3 4 4 6 7 8 9 9 10 11 12 13 14 15 14 14 14 14 13 13 13 13
12 11 10 10 10 8 7 6 8 8 9 10 10 9 8 8 7 7 6 6 6 5 4 4 3 3 3 3 4 5 6 7 8 9 10 10 11 12 13 14 15 15 14 14 14 14 13 14 14
12 11 10 9 8 6 5 5 6 7 8 10 10 9 7 7 7 7 6 6 6 6 5 5 4 4 4 4 5 6 7 7 8 9 10 11 11 12 13 14 15 15 15 15 15 14 14 14 15
12 11 9 8 7 5 5 5 6 7 8 9 9 8 8 7 7 7 7 7 7 7 7 6 6 6 6 6 6 7 8 8 9 10 10 11 12 13 14 15 15 16 15 15 15 15 16 16 16
12 12 10 7 5 3 5 5 7 7 8 8 8 8 7 7 7 7 7 7 8 8 8 7 7 7 7 7 8 8 9 9 10 11 11 12 13 14 15 15 15 16 16 16 16 16 17 17 17
11 10 9 7 6 5 4 5 7 7 7 7 8 8 8 8 8 8 8 8 8 8 8 8 8 8 9 9 9 10 10 11 11 12 12 13 14 14 15 16 16 16 16 16 17 18 18 18 17
10 10 9 7 6 5 5 6 7 7 8 8 8 8 8 8 8 8 9 9 9 9 9 9 9 10 10 10 11 11 11 12 12 13 13 14 14 15 15 16 16 17 17 17 18 19 19 18 18
10 10 10 8 7 6 5 6 9 8 8 9 9 9 9 9 9 9 9 10 10 10 10 10 11 11 12 12 12 12 12 12 13 13 14 15 15 15 16 16 17 17 18 18 19 19 19 19 20
11 11 11 11 9 7 7 8 10 9 9 9 9 9 9 10 10 10 10 10 11 11 11 12 12 12 13 13 13 13 13 14 14 15 15 16 16 16 17 17 18 18 19 19 20 21 21 21 21
9 11 12 11 10 10 7 7 10 10 10 10 10 10 10 10 11 11 11 11 12 12 12 12 13 14 14 14 14 14 15 15 16 16 17 17 18 18 18 18 19 19 20 20 21 22 22 22 21